Location: Ferchesar
(52.6477°N, 12.4298°E)
Time: 09:34:43
(UTC+01:00)

AO-73 - Pass Details

Date: 24 October 2021
Orbit: 581 x 661 km, 97.6° (Epoch: 28 November)

Event Time Altitude Azimuth Distance (km) Brightness Sun altitude
Rises 04:25:32 0° 31° (NNE) 2,821 ? -31.5°
Reaches altitude 10° 04:29:10 10° 65° (ENE) 1,922 ? -31.0°
Maximum altitude 04:30:39 12° 86° (E) 1,817 ? -30.7°
Drops below altitude 10° 04:32:08 10° 107° (ESE) 1,927 ? -30.5°
Sets 04:35:46 0° 140° (SE) 2,839 ? -30.0°
